Year,Month,Day,Hour,Minute,Value (Times are PST for temperature in C)
2012,06,29,00,00,14.00
2012,06,29,00,01,14.00
2012,06,29,00,02,14.00
2012,06,29,00,03,14.00
2012,06,29,00,04,14.00
2012,06,29,00,05,14.00
2012,06,29,00,06,14.00
2012,06,29,00,07,14.00
2012,06,29,00,08,14.00
2012,06,29,00,09,14.00
2012,06,29,00,10,14.00
2012,06,29,00,11,14.10
2012,06,29,00,12,14.10
2012,06,29,00,13,14.10
2012,06,29,00,14,14.10
2012,06,29,00,15,14.10
2012,06,29,00,16,14.10
2012,06,29,00,17,14.10
2012,06,29,00,18,14.20
2012,06,29,00,19,14.20
2012,06,29,00,20,14.20
2012,06,29,00,21,14.20
2012,06,29,00,22,14.20
2012,06,29,00,23,14.20
2012,06,29,00,24,14.20
2012,06,29,00,25,14.20
2012,06,29,00,26,14.20
2012,06,29,00,27,14.20
2012,06,29,00,28,14.20
2012,06,29,00,29,14.20
2012,06,29,00,30,14.20
2012,06,29,00,31,14.20
2012,06,29,00,32,14.10
2012,06,29,00,33,14.10
2012,06,29,00,34,14.10
2012,06,29,00,35,14.10
2012,06,29,00,36,14.10
2012,06,29,00,37,14.10
2012,06,29,00,38,14.10
2012,06,29,00,39,14.10
2012,06,29,00,40,14.10
2012,06,29,00,41,14.10
2012,06,29,00,42,14.10
2012,06,29,00,43,14.10
2012,06,29,00,44,14.10
2012,06,29,00,45,14.10
2012,06,29,00,46,14.10
2012,06,29,00,47,14.10
2012,06,29,00,48,14.10
2012,06,29,00,49,14.10
2012,06,29,00,50,14.10
2012,06,29,00,51,14.10
2012,06,29,00,52,14.10
2012,06,29,00,53,14.10
2012,06,29,00,54,14.10
2012,06,29,00,55,14.10
2012,06,29,00,56,14.10
2012,06,29,00,57,14.10
2012,06,29,00,58,14.10
2012,06,29,00,59,14.10
2012,06,29,01,00,14.10
2012,06,29,01,01,14.10
2012,06,29,01,02,14.10
2012,06,29,01,03,14.10
2012,06,29,01,04,14.10
2012,06,29,01,05,14.10
2012,06,29,01,06,14.10
2012,06,29,01,07,14.10
2012,06,29,01,08,14.10
2012,06,29,01,09,14.10
2012,06,29,01,10,14.10
2012,06,29,01,11,14.10
2012,06,29,01,12,14.10
2012,06,29,01,13,14.10
2012,06,29,01,14,14.10
2012,06,29,01,15,14.10
2012,06,29,01,16,14.10
2012,06,29,01,17,14.10
2012,06,29,01,18,14.10
2012,06,29,01,19,14.10
2012,06,29,01,20,14.10
2012,06,29,01,21,14.10
2012,06,29,01,22,14.10
2012,06,29,01,23,14.10
2012,06,29,01,24,14.10
2012,06,29,01,25,14.10
2012,06,29,01,26,14.10
2012,06,29,01,27,14.10
2012,06,29,01,28,14.10
2012,06,29,01,29,14.10
2012,06,29,01,30,14.10
2012,06,29,01,31,14.10
2012,06,29,01,32,14.10
2012,06,29,01,33,14.10
2012,06,29,01,34,14.10
2012,06,29,01,35,14.10
2012,06,29,01,36,14.10
2012,06,29,01,37,14.10
2012,06,29,01,38,14.20
2012,06,29,01,39,14.20
2012,06,29,01,40,14.20
2012,06,29,01,41,14.20
2012,06,29,01,42,14.20
2012,06,29,01,43,14.20
2012,06,29,01,44,14.20
2012,06,29,01,45,14.30
2012,06,29,01,46,14.30
2012,06,29,01,47,14.30
2012,06,29,01,48,14.30
2012,06,29,01,49,14.30
2012,06,29,01,50,14.30
2012,06,29,01,51,14.30
2012,06,29,01,52,14.30
2012,06,29,01,53,14.30
2012,06,29,01,54,14.30
2012,06,29,01,55,14.30
2012,06,29,01,56,14.30
2012,06,29,01,57,14.30
2012,06,29,01,58,14.30
2012,06,29,01,59,14.30
2012,06,29,02,00,14.30
2012,06,29,02,01,14.30
2012,06,29,02,02,14.30
2012,06,29,02,03,14.40
2012,06,29,02,04,14.40
2012,06,29,02,05,14.40
2012,06,29,02,06,14.40
2012,06,29,02,07,14.40
2012,06,29,02,08,14.40
2012,06,29,02,09,14.40
2012,06,29,02,10,14.40
2012,06,29,02,11,14.40
2012,06,29,02,12,14.40
2012,06,29,02,13,14.40
2012,06,29,02,14,14.40
2012,06,29,02,15,14.40
2012,06,29,02,16,14.40
2012,06,29,02,17,14.40
2012,06,29,02,18,14.40
2012,06,29,02,19,14.40
2012,06,29,02,20,14.40
2012,06,29,02,21,14.40
2012,06,29,02,22,14.40
2012,06,29,02,23,14.40
2012,06,29,02,24,14.40
2012,06,29,02,25,14.40
2012,06,29,02,26,14.40
2012,06,29,02,27,14.40
2012,06,29,02,28,14.40
2012,06,29,02,29,14.40
2012,06,29,02,30,14.40
2012,06,29,02,31,14.40
2012,06,29,02,32,14.40
2012,06,29,02,33,14.40
2012,06,29,02,34,14.50
2012,06,29,02,35,14.50
2012,06,29,02,36,14.50
2012,06,29,02,37,14.50
2012,06,29,02,38,14.50
2012,06,29,02,39,14.50
2012,06,29,02,40,14.50
2012,06,29,02,41,14.50
2012,06,29,02,42,14.50
2012,06,29,02,43,14.60
2012,06,29,02,44,14.60
2012,06,29,02,45,14.60
2012,06,29,02,46,14.60
2012,06,29,02,47,14.60
2012,06,29,02,48,14.60
2012,06,29,02,49,14.60
2012,06,29,02,50,14.60
2012,06,29,02,51,14.50
2012,06,29,02,52,14.60
2012,06,29,02,53,14.50
2012,06,29,02,54,14.50
2012,06,29,02,55,14.50
2012,06,29,02,56,14.50
2012,06,29,02,57,14.50
2012,06,29,02,58,14.50
2012,06,29,02,59,14.60
2012,06,29,03,00,14.50
2012,06,29,03,01,14.50
2012,06,29,03,02,14.50
2012,06,29,03,03,14.60
2012,06,29,03,04,14.60
2012,06,29,03,05,14.60
2012,06,29,03,06,14.60
2012,06,29,03,07,14.60
2012,06,29,03,08,14.60
2012,06,29,03,09,14.60
2012,06,29,03,10,14.60
2012,06,29,03,11,14.60
2012,06,29,03,12,14.60
2012,06,29,03,13,14.60
2012,06,29,03,14,14.60
2012,06,29,03,15,14.60
2012,06,29,03,16,14.60
2012,06,29,03,17,14.60
2012,06,29,03,18,14.60
2012,06,29,03,19,14.60
2012,06,29,03,20,14.60
2012,06,29,03,21,14.60
2012,06,29,03,22,14.60
2012,06,29,03,23,14.60
2012,06,29,03,24,14.60
2012,06,29,03,25,14.60
2012,06,29,03,26,14.60
2012,06,29,03,27,14.50
2012,06,29,03,28,14.60
2012,06,29,03,29,14.60
2012,06,29,03,30,14.60
2012,06,29,03,31,14.60
2012,06,29,03,32,14.60
2012,06,29,03,33,14.60
2012,06,29,03,34,14.60
2012,06,29,03,35,14.60
2012,06,29,03,36,14.60
2012,06,29,03,37,14.60
2012,06,29,03,38,14.60
2012,06,29,03,39,14.60
2012,06,29,03,40,14.60
2012,06,29,03,41,14.60
2012,06,29,03,42,14.60
2012,06,29,03,43,14.60
2012,06,29,03,44,14.70
2012,06,29,03,45,14.70
2012,06,29,03,46,14.70
2012,06,29,03,47,14.70
2012,06,29,03,48,14.70
2012,06,29,03,49,14.70
2012,06,29,03,50,14.60
2012,06,29,03,51,14.70
2012,06,29,03,52,14.70
2012,06,29,03,53,14.70
2012,06,29,03,54,14.70
2012,06,29,03,55,14.70
2012,06,29,03,56,14.70
2012,06,29,03,57,14.70
2012,06,29,03,58,14.70
2012,06,29,03,59,14.60
2012,06,29,04,00,14.60
2012,06,29,04,01,14.60
2012,06,29,04,02,14.60
2012,06,29,04,03,14.60
2012,06,29,04,04,14.60
2012,06,29,04,05,14.60
2012,06,29,04,06,14.60
2012,06,29,04,07,14.60
2012,06,29,04,08,14.60
2012,06,29,04,09,14.60
2012,06,29,04,10,14.60
2012,06,29,04,11,14.60
2012,06,29,04,12,14.60
2012,06,29,04,13,14.60
2012,06,29,04,14,14.60
2012,06,29,04,15,14.60
2012,06,29,04,16,14.60
2012,06,29,04,17,14.60
2012,06,29,04,18,14.60
2012,06,29,04,19,14.60
2012,06,29,04,20,14.60
2012,06,29,04,21,14.60
2012,06,29,04,22,14.60
2012,06,29,04,23,14.60
2012,06,29,04,24,14.60
2012,06,29,04,25,14.60
2012,06,29,04,26,14.60
2012,06,29,04,27,14.60
2012,06,29,04,28,14.60
2012,06,29,04,29,14.60
2012,06,29,04,30,14.60
2012,06,29,04,31,14.60
2012,06,29,04,32,14.60
2012,06,29,04,33,14.60
2012,06,29,04,34,14.60
2012,06,29,04,35,14.60
2012,06,29,04,36,14.60
2012,06,29,04,37,14.60
2012,06,29,04,38,14.60
2012,06,29,04,39,14.60
2012,06,29,04,40,14.60
2012,06,29,04,41,14.50
2012,06,29,04,42,14.50
2012,06,29,04,43,14.50
2012,06,29,04,44,14.50
2012,06,29,04,45,14.50
2012,06,29,04,46,14.50
2012,06,29,04,47,14.50
2012,06,29,04,48,14.50
2012,06,29,04,49,14.50
2012,06,29,04,50,14.50
2012,06,29,04,51,14.40
2012,06,29,04,52,14.40
2012,06,29,04,53,14.40
2012,06,29,04,54,14.40
2012,06,29,04,55,14.40
2012,06,29,04,56,14.40
2012,06,29,04,57,14.40
2012,06,29,04,58,14.40
2012,06,29,04,59,14.40
2012,06,29,05,00,14.40
2012,06,29,05,01,14.40
2012,06,29,05,02,14.40
2012,06,29,05,03,14.40
2012,06,29,05,04,14.40
2012,06,29,05,05,14.40
2012,06,29,05,06,14.40
2012,06,29,05,07,14.40
2012,06,29,05,08,14.40
2012,06,29,05,09,14.40
2012,06,29,05,10,14.40
2012,06,29,05,11,14.40
2012,06,29,05,12,14.40
2012,06,29,05,13,14.40
2012,06,29,05,14,14.40
2012,06,29,05,15,14.40
2012,06,29,05,16,14.40
2012,06,29,05,17,14.40
2012,06,29,05,18,14.40
2012,06,29,05,19,14.40
2012,06,29,05,20,14.40
2012,06,29,05,21,14.30
2012,06,29,05,22,14.40
2012,06,29,05,23,14.40
2012,06,29,05,24,14.30
2012,06,29,05,25,14.30
2012,06,29,05,26,14.30
2012,06,29,05,27,14.30
2012,06,29,05,28,14.40
2012,06,29,05,29,14.30
2012,06,29,05,30,14.30
2012,06,29,05,31,14.30
2012,06,29,05,32,14.30
2012,06,29,05,33,14.30
2012,06,29,05,34,14.30
2012,06,29,05,35,14.40
2012,06,29,05,36,14.40
2012,06,29,05,37,14.40
2012,06,29,05,38,14.40
2012,06,29,05,39,14.40
2012,06,29,05,40,14.40
2012,06,29,05,41,14.30
2012,06,29,05,42,14.30
2012,06,29,05,43,14.30
2012,06,29,05,44,14.30
2012,06,29,05,45,14.30
2012,06,29,05,46,14.30
2012,06,29,05,47,14.30
2012,06,29,05,48,14.30
2012,06,29,05,49,14.30
2012,06,29,05,50,14.30
2012,06,29,05,51,14.30
2012,06,29,05,52,14.30
2012,06,29,05,53,14.30
2012,06,29,05,54,14.30
2012,06,29,05,55,14.30
2012,06,29,05,56,14.30
2012,06,29,05,57,14.30
2012,06,29,05,58,14.30
2012,06,29,05,59,14.30
2012,06,29,06,00,14.30
2012,06,29,06,01,14.30
2012,06,29,06,02,14.30
2012,06,29,06,03,14.30
2012,06,29,06,04,14.30
2012,06,29,06,05,14.30
2012,06,29,06,06,14.30
2012,06,29,06,07,14.30
2012,06,29,06,08,14.30
2012,06,29,06,09,14.30
2012,06,29,06,10,14.30
2012,06,29,06,11,14.30
2012,06,29,06,12,14.30
2012,06,29,06,13,14.30
2012,06,29,06,14,14.30
2012,06,29,06,15,14.30
2012,06,29,06,16,14.30
2012,06,29,06,17,14.30
2012,06,29,06,18,14.30
2012,06,29,06,19,14.30
2012,06,29,06,20,14.30
2012,06,29,06,21,14.30
2012,06,29,06,22,14.30
2012,06,29,06,23,14.30
2012,06,29,06,24,14.30
2012,06,29,06,25,14.30
2012,06,29,06,26,14.30
2012,06,29,06,27,14.30
2012,06,29,06,28,14.30
2012,06,29,06,29,14.30
2012,06,29,06,30,14.30
2012,06,29,06,31,14.30
2012,06,29,06,32,14.30
2012,06,29,06,33,14.30
2012,06,29,06,34,14.30
2012,06,29,06,35,14.30
2012,06,29,06,36,14.30
2012,06,29,06,37,14.30
2012,06,29,06,38,14.30
2012,06,29,06,39,14.30
2012,06,29,06,40,14.30
2012,06,29,06,41,14.30
2012,06,29,06,42,14.40
2012,06,29,06,43,14.40
2012,06,29,06,44,14.40
2012,06,29,06,45,14.40
2012,06,29,06,46,14.40
2012,06,29,06,47,14.40
2012,06,29,06,48,14.40
2012,06,29,06,49,14.40
2012,06,29,06,50,14.40
2012,06,29,06,51,14.40
2012,06,29,06,52,14.40
2012,06,29,06,53,14.40
2012,06,29,06,54,14.40
2012,06,29,06,55,14.40
2012,06,29,06,56,14.40
2012,06,29,06,57,14.40
2012,06,29,06,58,14.40
2012,06,29,06,59,14.40
2012,06,29,07,00,14.40
2012,06,29,07,01,14.40
2012,06,29,07,02,14.40
2012,06,29,07,03,14.40
2012,06,29,07,04,14.40
2012,06,29,07,05,14.40
2012,06,29,07,06,14.40
2012,06,29,07,07,14.40
2012,06,29,07,08,14.40
2012,06,29,07,09,14.50
2012,06,29,07,10,14.50
2012,06,29,07,11,14.50
2012,06,29,07,12,14.50
2012,06,29,07,13,14.50
2012,06,29,07,14,14.50
2012,06,29,07,15,14.50
2012,06,29,07,16,14.60
2012,06,29,07,17,14.60
2012,06,29,07,18,14.60
2012,06,29,07,19,14.60
2012,06,29,07,20,14.60
2012,06,29,07,21,14.60
2012,06,29,07,22,14.60
2012,06,29,07,23,14.60
2012,06,29,07,24,14.60
2012,06,29,07,25,14.60
2012,06,29,07,26,14.60
2012,06,29,07,27,14.60
2012,06,29,07,28,14.60
2012,06,29,07,29,14.70
2012,06,29,07,30,14.70
2012,06,29,07,31,14.70
2012,06,29,07,32,14.70
2012,06,29,07,33,14.70
2012,06,29,07,34,14.70
2012,06,29,07,35,14.70
2012,06,29,07,36,14.70
2012,06,29,07,37,14.80
2012,06,29,07,38,14.80
2012,06,29,07,39,14.80
2012,06,29,07,40,14.80
2012,06,29,07,41,14.80
2012,06,29,07,42,14.80
2012,06,29,07,43,14.80
2012,06,29,07,44,14.80
2012,06,29,07,45,14.80
2012,06,29,07,46,14.80
2012,06,29,07,47,14.90
2012,06,29,07,48,14.90
2012,06,29,07,49,14.90
2012,06,29,07,50,14.90
2012,06,29,07,51,14.90
2012,06,29,07,52,14.90
2012,06,29,07,53,15.00
2012,06,29,07,54,15.00
2012,06,29,07,55,15.00
2012,06,29,07,56,15.10
2012,06,29,07,57,15.10
2012,06,29,07,58,15.10
2012,06,29,07,59,15.10
2012,06,29,08,00,15.10
2012,06,29,08,01,15.10
2012,06,29,08,02,15.20
2012,06,29,08,03,15.20
2012,06,29,08,04,15.20
2012,06,29,08,05,15.20
2012,06,29,08,06,15.20
2012,06,29,08,07,15.20
2012,06,29,08,08,15.30
2012,06,29,08,09,15.30
2012,06,29,08,10,15.30
2012,06,29,08,11,15.30
2012,06,29,08,12,15.30
2012,06,29,08,13,15.30
2012,06,29,08,14,15.30
2012,06,29,08,15,15.40
2012,06,29,08,16,15.40
2012,06,29,08,17,15.40
2012,06,29,08,18,15.40
2012,06,29,08,19,15.40
2012,06,29,08,20,15.40
2012,06,29,08,21,15.40
2012,06,29,08,22,15.40
2012,06,29,08,23,15.50
2012,06,29,08,24,15.50
2012,06,29,08,25,15.50
2012,06,29,08,26,15.50
2012,06,29,08,27,15.50
2012,06,29,08,28,15.50
2012,06,29,08,29,15.60
2012,06,29,08,30,15.60
2012,06,29,08,31,15.60
2012,06,29,08,32,15.60
2012,06,29,08,33,15.60
2012,06,29,08,34,15.60
2012,06,29,08,35,15.60
2012,06,29,08,36,15.60
2012,06,29,08,37,15.60
2012,06,29,08,38,15.60
2012,06,29,08,39,15.70
2012,06,29,08,40,15.70
2012,06,29,08,41,15.70
2012,06,29,08,42,15.70
2012,06,29,08,43,15.70
2012,06,29,08,44,15.70
2012,06,29,08,45,15.80
2012,06,29,08,46,15.80
2012,06,29,08,47,15.80
2012,06,29,08,48,15.80
2012,06,29,08,49,15.80
2012,06,29,08,50,15.80
2012,06,29,08,51,15.80
2012,06,29,08,52,15.90
2012,06,29,08,53,15.90
2012,06,29,08,54,15.90
2012,06,29,08,55,15.90
2012,06,29,08,56,15.90
2012,06,29,08,57,15.90
2012,06,29,08,58,15.90
2012,06,29,08,59,15.90
2012,06,29,09,00,15.90
2012,06,29,09,01,15.90
2012,06,29,09,02,15.90
2012,06,29,09,03,15.90
2012,06,29,09,04,15.90
2012,06,29,09,05,15.90
2012,06,29,09,06,16.00
2012,06,29,09,07,16.00
2012,06,29,09,08,16.00
2012,06,29,09,09,16.00
2012,06,29,09,10,16.10
2012,06,29,09,11,16.10
2012,06,29,09,12,16.20
2012,06,29,09,13,16.20
2012,06,29,09,14,16.20
2012,06,29,09,15,16.30
2012,06,29,09,16,16.20
2012,06,29,09,17,16.20
2012,06,29,09,18,16.20
2012,06,29,09,19,16.20
2012,06,29,09,20,16.20
2012,06,29,09,21,16.20
2012,06,29,09,22,16.20
2012,06,29,09,23,16.20
2012,06,29,09,24,16.20
2012,06,29,09,25,16.20
2012,06,29,09,26,16.20
2012,06,29,09,27,16.20
2012,06,29,09,28,16.20
2012,06,29,09,29,16.20
2012,06,29,09,30,16.20
2012,06,29,09,31,16.30
2012,06,29,09,32,16.30
2012,06,29,09,33,16.30
2012,06,29,09,34,16.30
2012,06,29,09,35,16.30
2012,06,29,09,36,16.30
2012,06,29,09,37,16.30
2012,06,29,09,38,16.30
2012,06,29,09,39,16.30
2012,06,29,09,40,16.40
2012,06,29,09,41,16.40
2012,06,29,09,42,16.40
2012,06,29,09,43,16.50
2012,06,29,09,44,16.50
2012,06,29,09,45,16.60
2012,06,29,09,46,16.60
2012,06,29,09,47,16.60
2012,06,29,09,48,16.60
2012,06,29,09,49,16.70
2012,06,29,09,50,16.70
2012,06,29,09,51,16.70
2012,06,29,09,52,16.70
2012,06,29,09,53,16.80
2012,06,29,09,54,16.80
2012,06,29,09,55,16.80
2012,06,29,09,56,16.80
2012,06,29,09,57,16.90
2012,06,29,09,58,16.90
2012,06,29,09,59,16.90
2012,06,29,10,00,16.90
2012,06,29,10,01,17.00
2012,06,29,10,02,17.00
2012,06,29,10,03,17.10
2012,06,29,10,04,17.10
2012,06,29,10,05,17.20
2012,06,29,10,06,17.30
2012,06,29,10,07,17.30
2012,06,29,10,08,17.40
2012,06,29,10,09,17.50
2012,06,29,10,10,17.60
2012,06,29,10,11,17.70
2012,06,29,10,12,17.70
2012,06,29,10,13,17.80
2012,06,29,10,14,17.90
2012,06,29,10,15,17.90
2012,06,29,10,16,18.00
2012,06,29,10,17,18.00
2012,06,29,10,18,18.00
2012,06,29,10,19,18.00
2012,06,29,10,20,18.00
2012,06,29,10,21,18.00
2012,06,29,10,22,18.10
2012,06,29,10,23,18.10
2012,06,29,10,24,18.10
2012,06,29,10,25,18.10
2012,06,29,10,26,18.10
2012,06,29,10,27,18.10
2012,06,29,10,28,18.10
2012,06,29,10,29,18.10
2012,06,29,10,30,18.00
2012,06,29,10,31,18.00
2012,06,29,10,32,18.00
2012,06,29,10,33,17.90
2012,06,29,10,34,17.90
2012,06,29,10,35,17.90
2012,06,29,10,36,17.90
2012,06,29,10,37,17.90
2012,06,29,10,38,17.90
2012,06,29,10,39,17.90
2012,06,29,10,40,17.90
2012,06,29,10,41,18.00
2012,06,29,10,42,18.00
2012,06,29,10,43,18.10
2012,06,29,10,44,18.10
2012,06,29,10,45,18.10
2012,06,29,10,46,18.20
2012,06,29,10,47,18.10
2012,06,29,10,48,18.10
2012,06,29,10,49,18.10
2012,06,29,10,50,18.10
2012,06,29,10,51,18.10
2012,06,29,10,52,18.10
2012,06,29,10,53,18.00
2012,06,29,10,54,18.00
2012,06,29,10,55,18.00
2012,06,29,10,56,18.00
2012,06,29,10,57,17.90
2012,06,29,10,58,17.90
2012,06,29,10,59,17.90
2012,06,29,11,00,17.90
2012,06,29,11,01,17.90
2012,06,29,11,02,17.90
2012,06,29,11,03,17.90
2012,06,29,11,04,17.90
2012,06,29,11,05,17.80
2012,06,29,11,06,17.80
2012,06,29,11,07,17.80
2012,06,29,11,08,17.80
2012,06,29,11,09,17.80
2012,06,29,11,10,17.80
2012,06,29,11,11,17.80
2012,06,29,11,12,17.80
2012,06,29,11,13,17.80
2012,06,29,11,14,17.80
2012,06,29,11,15,17.80
2012,06,29,11,16,17.80
2012,06,29,11,17,17.80
2012,06,29,11,18,17.80
2012,06,29,11,19,17.80
2012,06,29,11,20,17.80
2012,06,29,11,21,17.80
2012,06,29,11,22,17.80
2012,06,29,11,23,17.80
2012,06,29,11,24,17.90
2012,06,29,11,25,17.90
2012,06,29,11,26,17.90
2012,06,29,11,27,18.00
2012,06,29,11,28,18.00
2012,06,29,11,29,18.10
2012,06,29,11,30,18.10
2012,06,29,11,31,18.00
2012,06,29,11,32,18.00
2012,06,29,11,33,18.00
2012,06,29,11,34,17.90
2012,06,29,11,35,17.90
2012,06,29,11,36,17.90
2012,06,29,11,37,17.90
2012,06,29,11,38,17.80
2012,06,29,11,39,17.80
2012,06,29,11,40,17.80
2012,06,29,11,41,17.80
2012,06,29,11,42,17.80
2012,06,29,11,43,17.80
2012,06,29,11,44,17.80
2012,06,29,11,45,17.80
2012,06,29,11,46,17.70
2012,06,29,11,47,17.70
2012,06,29,11,48,17.60
2012,06,29,11,49,17.60
2012,06,29,11,50,17.50
2012,06,29,11,51,17.50
2012,06,29,11,52,17.40
2012,06,29,11,53,17.30
2012,06,29,11,54,17.30
2012,06,29,11,55,17.30
2012,06,29,11,56,17.20
2012,06,29,11,57,17.20
2012,06,29,11,58,17.20
2012,06,29,11,59,17.20
2012,06,29,12,00,17.20
2012,06,29,12,01,17.20
2012,06,29,12,02,17.10
2012,06,29,12,03,17.10
2012,06,29,12,04,17.10
2012,06,29,12,05,17.10
2012,06,29,12,06,17.00
2012,06,29,12,07,17.00
2012,06,29,12,08,17.00
2012,06,29,12,09,17.00
2012,06,29,12,10,17.00
2012,06,29,12,11,17.00
2012,06,29,12,12,17.00
2012,06,29,12,13,17.10
2012,06,29,12,14,17.10
2012,06,29,12,15,17.10
2012,06,29,12,16,17.10
2012,06,29,12,17,17.10
2012,06,29,12,18,17.10
2012,06,29,12,19,17.10
2012,06,29,12,20,17.10
2012,06,29,12,21,17.10
2012,06,29,12,22,17.10
2012,06,29,12,23,17.10
2012,06,29,12,24,17.00
2012,06,29,12,25,17.00
2012,06,29,12,26,16.90
2012,06,29,12,27,16.90
2012,06,29,12,28,16.90
2012,06,29,12,29,16.80
2012,06,29,12,30,16.80
2012,06,29,12,31,16.80
2012,06,29,12,32,16.80
2012,06,29,12,33,16.80
2012,06,29,12,34,16.80
2012,06,29,12,35,16.80
2012,06,29,12,36,16.80
2012,06,29,12,37,16.80
2012,06,29,12,38,16.70
2012,06,29,12,39,16.70
2012,06,29,12,40,16.60
2012,06,29,12,41,16.60
2012,06,29,12,42,16.50
2012,06,29,12,43,16.50
2012,06,29,12,44,16.40
2012,06,29,12,45,16.30
2012,06,29,12,46,16.30
2012,06,29,12,47,16.30
2012,06,29,12,48,16.30
2012,06,29,12,49,16.30
2012,06,29,12,50,16.30
2012,06,29,12,51,16.30
2012,06,29,12,52,16.30
2012,06,29,12,53,16.30
2012,06,29,12,54,16.30
2012,06,29,12,55,16.30
2012,06,29,12,56,16.30
2012,06,29,12,57,16.30
2012,06,29,12,58,16.30
2012,06,29,12,59,16.40
2012,06,29,13,00,16.40
2012,06,29,13,01,16.40
2012,06,29,13,02,16.40
2012,06,29,13,03,16.50
2012,06,29,13,04,16.50
2012,06,29,13,05,16.60
2012,06,29,13,06,16.60
2012,06,29,13,07,16.60
2012,06,29,13,08,16.60
2012,06,29,13,09,16.60
2012,06,29,13,10,16.60
2012,06,29,13,11,16.50
2012,06,29,13,12,16.50
2012,06,29,13,13,16.50
2012,06,29,13,14,16.50
2012,06,29,13,15,16.50
2012,06,29,13,16,16.50
2012,06,29,13,17,16.60
2012,06,29,13,18,16.60
2012,06,29,13,19,16.70
2012,06,29,13,20,16.90
2012,06,29,13,21,17.00
2012,06,29,13,22,17.10
2012,06,29,13,23,17.20
2012,06,29,13,24,17.20
2012,06,29,13,25,17.30
2012,06,29,13,26,17.30
2012,06,29,13,27,17.40
2012,06,29,13,28,17.40
2012,06,29,13,29,17.40
2012,06,29,13,30,17.50
2012,06,29,13,31,17.60
2012,06,29,13,32,17.70
2012,06,29,13,33,17.70
2012,06,29,13,34,17.80
2012,06,29,13,35,17.80
2012,06,29,13,36,17.80
2012,06,29,13,37,17.90
2012,06,29,13,38,17.80
2012,06,29,13,39,17.80
2012,06,29,13,40,17.80
2012,06,29,13,41,17.80
2012,06,29,13,42,17.80
2012,06,29,13,43,17.80
2012,06,29,13,44,17.80
2012,06,29,13,45,17.70
2012,06,29,13,46,17.70
2012,06,29,13,47,17.70
2012,06,29,13,48,17.70
2012,06,29,13,49,17.70
2012,06,29,13,50,17.70
2012,06,29,13,51,17.70
2012,06,29,13,52,17.70
2012,06,29,13,53,17.60
2012,06,29,13,54,17.60
2012,06,29,13,55,17.60
2012,06,29,13,56,17.60
2012,06,29,13,57,17.60
2012,06,29,13,58,17.70
2012,06,29,13,59,17.70
2012,06,29,14,00,17.70
2012,06,29,14,01,17.70
2012,06,29,14,02,17.60
2012,06,29,14,03,17.70
2012,06,29,14,04,17.60
2012,06,29,14,05,17.60
2012,06,29,14,06,17.60
2012,06,29,14,07,17.60
2012,06,29,14,08,17.60
2012,06,29,14,09,17.60
2012,06,29,14,10,17.50
2012,06,29,14,11,17.50
2012,06,29,14,12,17.40
2012,06,29,14,13,17.40
2012,06,29,14,14,17.30
2012,06,29,14,15,17.30
2012,06,29,14,16,17.30
2012,06,29,14,17,17.30
2012,06,29,14,18,17.30
2012,06,29,14,19,17.40
2012,06,29,14,20,17.40
2012,06,29,14,21,17.50
2012,06,29,14,22,17.60
2012,06,29,14,23,17.70
2012,06,29,14,24,17.70
2012,06,29,14,25,17.80
2012,06,29,14,26,17.80
2012,06,29,14,27,17.90
2012,06,29,14,28,17.90
2012,06,29,14,29,18.00
2012,06,29,14,30,18.10
2012,06,29,14,31,18.10
2012,06,29,14,32,18.20
2012,06,29,14,33,18.20
2012,06,29,14,34,18.30
2012,06,29,14,35,18.30
2012,06,29,14,36,18.30
2012,06,29,14,37,18.40
2012,06,29,14,38,18.50
2012,06,29,14,39,18.50
2012,06,29,14,40,18.60
2012,06,29,14,41,18.70
2012,06,29,14,42,18.80
2012,06,29,14,43,18.80
2012,06,29,14,44,18.90
2012,06,29,14,45,18.90
2012,06,29,14,46,18.90
2012,06,29,14,47,18.90
2012,06,29,14,48,18.80
2012,06,29,14,49,18.80
2012,06,29,14,50,18.70
2012,06,29,14,51,18.70
2012,06,29,14,52,18.70
2012,06,29,14,53,18.70
2012,06,29,14,54,18.60
2012,06,29,14,55,18.60
2012,06,29,14,56,18.50
2012,06,29,14,57,18.50
2012,06,29,14,58,18.40
2012,06,29,14,59,18.40
2012,06,29,15,00,18.30
2012,06,29,15,01,18.30
2012,06,29,15,02,18.30
2012,06,29,15,03,18.20
2012,06,29,15,04,18.20
2012,06,29,15,05,18.20
2012,06,29,15,06,18.20
2012,06,29,15,07,18.10
2012,06,29,15,08,18.10
2012,06,29,15,09,18.00
2012,06,29,15,10,18.00
2012,06,29,15,11,17.90
2012,06,29,15,12,17.90
2012,06,29,15,13,17.90
2012,06,29,15,14,17.90
2012,06,29,15,15,18.00
2012,06,29,15,16,18.00
2012,06,29,15,17,18.10
2012,06,29,15,18,18.10
2012,06,29,15,19,18.20
2012,06,29,15,20,18.30
2012,06,29,15,21,18.50
2012,06,29,15,22,18.60
2012,06,29,15,23,18.70
2012,06,29,15,24,18.80
2012,06,29,15,25,18.80
2012,06,29,15,26,18.90
2012,06,29,15,27,18.90
2012,06,29,15,28,18.90
2012,06,29,15,29,18.80
2012,06,29,15,30,18.80
2012,06,29,15,31,18.80
2012,06,29,15,32,18.80
2012,06,29,15,33,18.80
2012,06,29,15,34,18.70
2012,06,29,15,35,18.70
2012,06,29,15,36,18.70
2012,06,29,15,37,18.70
2012,06,29,15,38,18.70
2012,06,29,15,39,18.70
2012,06,29,15,40,18.70
2012,06,29,15,41,18.60
2012,06,29,15,42,18.60
2012,06,29,15,43,18.60
2012,06,29,15,44,18.60
2012,06,29,15,45,18.60
2012,06,29,15,46,18.60
2012,06,29,15,47,18.70
2012,06,29,15,48,18.60
2012,06,29,15,49,18.70
2012,06,29,15,50,18.70
2012,06,29,15,51,18.70
2012,06,29,15,52,18.70
2012,06,29,15,53,18.70
2012,06,29,15,54,18.70
2012,06,29,15,55,18.70
2012,06,29,15,56,18.70
2012,06,29,15,57,18.70
2012,06,29,15,58,18.70
2012,06,29,15,59,18.70
2012,06,29,16,00,18.80
2012,06,29,16,01,18.80
2012,06,29,16,02,18.80
2012,06,29,16,03,18.80
2012,06,29,16,04,18.90
2012,06,29,16,05,18.90
2012,06,29,16,06,18.90
2012,06,29,16,07,18.90
2012,06,29,16,08,18.90
2012,06,29,16,09,18.90
2012,06,29,16,10,18.90
2012,06,29,16,11,19.00
2012,06,29,16,12,19.00
2012,06,29,16,13,19.00
2012,06,29,16,14,19.00
2012,06,29,16,15,19.00
2012,06,29,16,16,19.00
2012,06,29,16,17,19.00
2012,06,29,16,18,19.00
2012,06,29,16,19,19.00
2012,06,29,16,20,19.00
2012,06,29,16,21,18.90
2012,06,29,16,22,18.90
2012,06,29,16,23,18.90
2012,06,29,16,24,18.90
2012,06,29,16,25,18.90
2012,06,29,16,26,18.90
2012,06,29,16,27,18.90
2012,06,29,16,28,18.80
2012,06,29,16,29,18.80
2012,06,29,16,30,18.70
2012,06,29,16,31,18.70
2012,06,29,16,32,18.60
2012,06,29,16,33,18.60
2012,06,29,16,34,18.50
2012,06,29,16,35,18.40
2012,06,29,16,36,18.30
2012,06,29,16,37,18.30
2012,06,29,16,38,18.20
2012,06,29,16,39,18.20
2012,06,29,16,40,18.10
2012,06,29,16,41,18.00
2012,06,29,16,42,17.90
2012,06,29,16,43,17.90
2012,06,29,16,44,17.90
2012,06,29,16,45,17.90
2012,06,29,16,46,17.90
2012,06,29,16,47,17.90
2012,06,29,16,48,18.00
2012,06,29,16,49,18.00
2012,06,29,16,50,18.00
2012,06,29,16,51,18.10
2012,06,29,16,52,18.10
2012,06,29,16,53,18.20
2012,06,29,16,54,18.20
2012,06,29,16,55,18.20
2012,06,29,16,56,18.20
2012,06,29,16,57,18.30
2012,06,29,16,58,18.30
2012,06,29,16,59,18.30
2012,06,29,17,00,18.30
2012,06,29,17,01,18.30
2012,06,29,17,02,18.30
2012,06,29,17,03,18.30
2012,06,29,17,04,18.30
2012,06,29,17,05,18.30
2012,06,29,17,06,18.30
2012,06,29,17,07,18.30
2012,06,29,17,08,18.30
2012,06,29,17,09,18.30
2012,06,29,17,10,18.30
2012,06,29,17,11,18.30
2012,06,29,17,12,18.30
2012,06,29,17,13,18.30
2012,06,29,17,14,18.30
2012,06,29,17,15,18.30
2012,06,29,17,16,18.30
2012,06,29,17,17,18.30
2012,06,29,17,18,18.30
2012,06,29,17,19,18.30